EW3614 Weather Reports


time (UTC)temp
C
wind
direction
speed
KPH
gust
KPH
rain 1hr
cm
rain 24hr
cm
rain mn
cm
humidity
%
barometer
mb
20260507130020 5 217 6.4 11.3 0.00 1.52 0.03 91 949.0
20260507124526 5 227 4.8 12.9 0.00 1.63 0.03 92 948.8
20260507123016 -17 201 0.0 6.4 0.00 1.63 0.03 93 948.8
20260507121514 5 201 1.6 8.0 0.00 1.63 0.03 94 948.7
20260507120012 5 201 3.2 9.7 0.00 1.63 0.03 95 948.7
20260507114510 5 200 0.0 4.8 0.00 1.63 0.03 95 948.4
20260507113014 4 200 0.0 6.4 0.00 1.63 0.03 95 948.5
20260507111509 -17 253 0.0 3.2 0.00 1.63 0.03 95 948.6
20260507110007 4 253 0.0 0.0 0.00 1.63 0.03 95 948.5
20260507104506 3 253 0.0 0.0 0.00 1.63 0.03 95 948.5
20260507103004 3 253 0.0 0.0 0.00 1.63 0.03 95 948.6
20260507101507 4 253 0.0 0.0 0.00 1.63 0.03 94 948.4
20260507100001 -17 253 0.0 0.0 0.00 1.63 0.03 94 948.3
20260507094605 4 253 0.0 4.8 0.00 1.63 0.03 94 948.5
20260507093057 -17 275 0.0 9.7 0.00 1.63 0.03 95 948.5
20260507091556 3 349 0.0 0.0 0.00 1.63 0.03 95 948.5
20260507090059 3 283 0.0 9.7 0.00 1.63 0.03 95 948.4
20260507084559 3 25 0.0 6.4 0.00 1.63 0.03 95 948.7
20260507083052 3 232 0.0 0.0 0.00 1.63 0.03 95 948.7
20260507081551 -17 259 1.6 11.3 0.00 1.63 0.03 96 948.7
20260507080104 3 13 0.0 8.0 0.00 1.63 0.03 96 948.6
20260507074545 3 96 0.0 0.0 0.00 1.63 0.03 96 948.4
20260507073050 3 96 0.0 0.0 0.00 1.63 0.03 96 948.4
20260507071541 4 96 0.0 0.0 0.00 1.63 0.03 96 948.2
20260507070040 -17 96 0.0 0.0 0.00 1.63 0.03 96 948.2
20260507064538 4 96 0.0 0.0 0.00 1.68 0.03 96 948.2
20260507063036 4 96 0.0 0.0 0.00 1.68 0.03 96 948.5
20260507061535 4 96 0.0 0.0 0.00 1.68 0.03 96 948.5
20260507060032 4 96 0.0 0.0 0.00 1.68 0.03 95 948.4
20260507054536 -17 96 0.0 0.0 0.00 1.98 0.03 96 948.7
20260507053029 4 184 0.0 4.8 0.03 1.98 0.03 96 948.8
20260507051529 5 240 0.0 3.2 0.03 1.98 0.03 96 948.5
20260507050028 5 15 0.0 8.0 0.03 1.98 0.03 96 948.7
20260507044522 5 30 0.0 8.0 0.03 2.11 0.03 96 948.8
20260507043024 -17 345 0.0 4.8 0.00 2.08 0.00 96 948.7
20260507041519 5 355 0.0 1.6 0.00 2.08 0.00 96 948.8
20260507040017 5 355 0.0 0.0 0.00 2.08 0.00 96 948.7
20260507034514 5 15 0.0 0.0 0.00 2.08 2.08 96 948.9
20260507033012 5 15 0.0 0.0 0.00 2.08 2.08 96 949.0
20260507031512 5 15 0.0 0.0 0.03 2.08 2.08 96 948.8
20260507030010 5 15 0.0 0.0 0.03 2.08 2.08 96 949.0
20260507024512 -17 15 0.0 0.0 0.05 2.08 2.08 96 949.0
20260507023008 5 15 0.0 0.0 0.08 2.08 2.08 96 949.1
20260507021506 5 15 0.0 0.0 0.08 2.06 2.06 96 949.1
20260507020006 5 14 0.0 0.0 0.08 2.06 2.06 96 949.3
20260507014504 5 15 0.0 0.0 0.05 2.03 2.03 96 949.3
20260507013006 -17 16 0.0 3.2 0.05 2.01 2.01 96 949.1
20260507011601 6 38 0.0 0.0 0.05 1.98 1.98 96 949.1
20260507010104 -17 38 0.0 0.0 0.05 1.98 1.98 96 948.8
20260507004605 6 5 0.0 0.0 0.08 1.98 1.98 96 948.6
20260507003057 6 5 0.0 0.0 0.05 1.96 1.96 96 948.6
20260507001556 6 5 0.0 0.0 0.03 1.93 1.93 96 948.2
20260507000054 6 5 0.0 4.8 0.03 1.93 1.93 96 948.1
20260506234554 -17 360 0.0 0.0 0.00 1.91 1.91 96 947.6
20260506233107 6 5 0.0 0.0 0.00 1.91 1.91 96 947.7
20260506231555 6 5 0.0 0.0 0.00 1.91 1.91 96 947.6
20260506230049 6 5 0.0 1.6 0.00 1.91 1.91 96 947.4
20260506224545 7 5 0.0 4.8 0.00 1.91 1.91 96 947.2
20260506223046 -17 5 0.0 8.0 0.00 1.91 1.91 96 947.0
20260506221541 7 355 0.0 3.2 0.03 1.91 1.91 96 946.9
20260506220040 7 18 0.0 4.8 0.03 1.91 1.91 96 946.8
20260506214542 8 36 0.0 0.0 0.08 1.91 1.91 97 946.8
20260506213048 7 36 0.0 0.0 0.15 1.91 1.91 97 946.9
20260506211536 7 36 0.0 8.0 0.15 1.88 1.88 97 946.8
20260506210034 7 24 0.0 11.3 0.23 1.88 1.88 96 946.9
20260506204532 8 229 0.0 0.0 0.18 1.98 1.83 97 946.7
20260506203033 8 229 0.0 0.0 0.10 1.91 1.75 96 946.7
20260506201527 8 229 0.0 3.2 0.08 1.88 1.73 96 946.5
20260506200023 -17 229 0.0 0.0 0.00 1.80 1.65 96 946.5
20260506194521 9 229 0.0 0.0 0.00 1.80 1.65 97 946.6
20260506193018 9 229 0.0 1.6 0.00 1.80 1.65 97 946.7
20260506191517 9 229 3.2 9.7 0.03 1.80 1.65 96 946.7
20260506190015 10 229 4.8 8.0 0.10 1.80 1.65 97 946.8
20260506184522 -17 229 0.0 0.0 0.15 1.80 1.65 97 946.8
20260506183019 10 229 0.0 3.2 0.20 1.80 1.65 98 946.8
20260506181514 10 229 0.0 12.9 0.23 1.75 1.60 96 947.4
20260506180007 11 217 0.0 0.0 0.28 1.70 1.55 97 947.1
20260506174504 11 217 0.0 0.0 0.30 1.65 1.50 96 947.5
20260506173004 12 217 0.0 0.0 0.33 1.60 1.42 97 947.7
20260506171504 12 216 0.0 8.0 0.30 1.52 1.37 97 947.6
20260506170004 12 216 0.0 6.4 0.25 1.42 1.27 97 947.5
20260506164614 12 216 1.6 11.3 0.20 1.35 1.19 97 947.5
20260506163103 12 205 1.6 8.0 0.15 1.27 1.12 97 947.7
20260506161557 12 203 4.8 12.9 0.15 1.22 1.07 97 947.9
20260506154558 12 209 1.6 11.3 0.15 1.14 0.99 97 948.2
20260506153110 12 223 3.2 12.9 0.15 1.12 0.97 97 948.5
20260506151549 -17 218 3.2 11.3 0.15 1.07 0.91 97 948.6
20260506150057 11 222 3.2 16.1 0.15 1.04 0.89 97 948.8
20260506144555 11 211 3.2 9.7 0.13 0.99 0.84 97 948.8
20260506143045 11 232 1.6 9.7 0.13 0.97 0.81 97 948.8
20260506141543 11 204 3.2 6.4 0.13 0.91 0.76 97 949.0
20260506140042 11 203 0.0 6.4 0.15 0.89 0.71 96 949.1
20260506134541 11 198 0.0 6.4 0.18 0.86 0.71 96 949.2
20260506133042 11 198 0.0 0.0 0.18 0.84 0.69 97 949.1
20260506131541 11 198 0.0 0.0 0.13 0.79 0.64 96 949.1